User: anonymous   Login
Location: La Pernelle
(49.6188°N, 1.2999°W)
Time: 06:28:58
(UTC+00:00)
Language:

GEOS 3 Rocket - Orbit

View from above orbital plane
View from above orbital plane
View from above satellite
View from above satellite

Ground track
Ground track

The orbit data is extracted from the following two-line orbital elements,

1 07735U 75027B   21263.33226264 -.00000140  00000-0  16553-4 0  9995
2 07735 114.9727 179.0845 0036190 184.4263 175.6502 14.24649237411831
Epoch (UTC): 20 September 2021 07:58:27
Eccentricity: 0.0036190
inclination: 114.9727°
perigee height: 783 km
apogee height: 835 km
right ascension of ascending node: 179.0845°
argument of perigee: 184.4263°
revolutions per day: 14.24649237
mean anomaly at epoch: 175.6502°
orbit number at epoch: 41183

The dashed part of the orbit path shows where the satellite is in the earth's shadow,  

DLR